Location: Huesca
(42.1318°N, 0.4078°W)
Time: 21:39:27
(UTC+02:00)

DIWATA 2B (PO-101) - Pass Details

Date: 26 April 2024
Orbit: 575 x 589 km, 98.1° (Epoch: 20 May)

Event Time Altitude Azimuth Distance (km) Brightness Sun altitude
Exits shadow 05:29:29 - 170° (S) 2,216 ? -16.3°
Reaches altitude 10° 05:30:13 10° 171° (S) 1,912 ? -16.2°
Maximum altitude 05:34:22 77° 257° (WSW) 609 ? -15.5°
Drops below altitude 10° 05:38:33 10° 344° (NNW) 1,924 ? -14.9°
Sets 05:40:43 0° 346° (NNW) 2,828 ? -14.6°
